2018-111X (43897 NORAD) Tracking and Keplerian Element Data

This shows tracking and keplerian element data for the satellite.

Feedback or suggestion? Click here.




ElementValue
Catalog43897
Name2018-111X
Epoch Orbit458
Epoch Day26.16325555
Epoch Year2019
RAAN295.2464
Inclination97.2995
Eccentricity0.0024172
Argument of Perigee139.4343
Mean Anonmoly220.8702
Mean Motion15.23549712
Decay Rate6.22E-06
L11 43897U 18111X 19026.16325555 .00000622 00000-0 28750-4 0 9999
L22 43897 97.2995 295.2464 0024172 139.4343 220.8702 15.23549712 4586



Live tracking and technical data element details for 2018-111X (NORAD 43897). 2018-111X can be tracked NOW for your location showing map with azimuth and elevation plus other details from your city location.







IsCatalogInMostPopularTable: catalog: 43897, numindb: 281
Update: records affected: 1



GetName: 43897 2018-111X

Hit Count: updated at: Wed, 27 Sep 2023 18:48:10 GMT